Flight Track Log - Related Links

Times and Time Zones

All times are in EDT time to prevent confusion due to time zone crossing. See the OPT429 flight status page for this flight to view local times or setup timezone preferences in your user account.

Time Position Orientation Groundspeed Altitude Reporting Facility
EDT Latitude Longitude Course Direction KTS MPH feet Rate Location/Type
Sat 02:16:44 PM 39.9811 -76.9044 90° East 209 241 2,900  Level New York Center
Sat 02:17:42 PM 40.0144 -76.8639 43° Northeast 180 207 6,000 3,124 Climbing New York Center
Sat 02:18:45 PM 40.0097 -76.7553 93° East 235 270 9,200 3,100 Climbing New York Center
Sat 02:19:42 PM 40.0061 -76.6600 93° East 267 307 12,200 2,441 Climbing New York Center
Sat 02:20:43 PM 40.0836 -76.6094 27° Northeast 236 272 14,000 885 Climbing New York Center
Sat 02:21:44 PM 40.1506 -76.5608 29° Northeast 270 311 14,000  Level New York Center
Sat 02:22:00 PM 39.9167 -75.8655 90° East  Level FlightAware Approximate
Sat 02:22:42 PM 40.2267 -76.4964 33° Northeast 293 337 14,000  Level New York Center
Sat 02:23:42 PM 40.3003 -76.4400 30° Northeast 298 343 15,000 1,884 Climbing New York Center
Sat 02:24:43 PM 40.3742 -76.3806 31° Northeast 308 354 17,800 2,213 Climbing New York Center
Sat 02:25:44 PM 40.4411 -76.3289 30° Northeast 314 361 19,500 1,613 Climbing New York Center
Sat 02:26:42 PM 40.5256 -76.2619 31° Northeast 321 369 21,000 750 Climbing New York Center
Sat 02:27:44 PM 40.6167 -76.1872 32° Northeast 353 406 21,000  Level New York Center
Sat 02:28:42 PM 40.7114 -76.1153 30° Northeast 376 433 21,000  Level New York Center
Sat 02:29:44 PM 40.8064 -76.0431 30° Northeast 389 448 21,000  Level New York Center
Sat 02:30:43 PM 40.9014 -75.9708 30° Northeast 389 448 21,000  Level New York Center
Sat 02:31:45 PM 41.0050 -75.8881 31° Northeast 399 459 21,000  Level New York Center
Sat 02:32:43 PM 41.0997 -75.8153 30° Northeast 394 453 21,000  Level New York Center
Sat 02:33:44 PM 41.1967 -75.7369 31° Northeast 394 453 21,000  Level New York Center
Sat 02:34:42 PM 41.2978 -75.6617 29° Northeast 394 453 21,000  Level New York Center
Sat 02:36:49 PM 41.4889 -75.5103 31° Northeast 405 466 21,000  Level Boston Center
Sat 02:37:51 PM 41.5822 -75.4356 31° Northeast 399 459 21,000  Level Boston Center
Sat 02:38:51 PM 41.6756 -75.3619 30° Northeast 393 452 21,000  Level Boston Center
Sat 02:39:52 PM 41.7683 -75.2875 31° Northeast 393 452 21,000  Level Boston Center
Sat 02:40:52 PM 41.8797 -75.1986 31° Northeast 392 451 21,000 -97 Level Boston Center
Sat 02:41:56 PM 41.9719 -75.1208 32° Northeast 390 449 20,800 -629 Descending Boston Center
Sat 02:42:56 PM 42.0161 -74.9797 67° East 412 474 19,700 -1,140 Descending Boston Center
Sat 02:43:57 PM 41.9933 -74.8103 100° East 424 488 18,500 -1,082 Descending Boston Center
Sat 02:44:58 PM 41.9586 -74.6556 107° East 431 496 17,500 -726 Descending Boston Center
Sat 02:46:01 PM 41.9064 -74.5081 115° Southeast 413 475 17,000 -585 Descending Boston Center
Sat 02:47:01 PM 41.8250 -74.3997 135° Southeast 412 474 16,300 -683 Descending Boston Center
Sat 02:48:04 PM 41.7775 -74.2653 115° Southeast 402 463 15,600 -871 Descending Boston Center
Sat 02:49:05 PM 41.6994 -74.1564 134° Southeast 412 474 14,500 -1,623 Descending Boston Center
Sat 02:50:06 PM 41.6083 -74.0619 142° Southeast 382 440 12,300 -2,281 Descending Boston Center
Sat 02:51:06 PM 41.5319 -73.9808 142° Southeast 352 405 9,900 -2,033 Descending Boston Center
Sat 02:52:07 PM 41.4633 -73.9111 143° Southeast 307 353 8,200 -1,548 Descending Boston Center
Sat 02:53:10 PM 41.3981 -73.8467 143° Southeast 296 341 6,700 -1,452 Descending Boston Center
Sat 02:54:11 PM 41.3333 -73.7833 144° Southeast 275 316 5,200 -1,537 Descending New York TRACON
Sat 02:55:11 PM 41.2667 -73.7333 151° Southeast 276 318 3,600 -1,100 Descending New York TRACON
Sat 02:56:11 PM 41.2000 -73.6667 143° Southeast 262 302 3,000 -300 Descending New York TRACON
Sat 02:57:11 PM 41.1500 -73.6167 143° Southeast 250 288 3,000 -100 Level New York TRACON
Sat 02:58:11 PM 41.1000 -73.5667 143° Southeast 240 276 2,800 -347 Descending New York TRACON
Sat 02:59:12 PM 41.0333 -73.5333 159° South 245 282 2,300 -347 Descending New York TRACON
Sat 03:00:12 PM 40.9833 -73.5833 217° Southwest 231 266 2,100 -250 Descending New York TRACON
Sat 03:01:12 PM 41.0000 -73.6500 288° West 208 239 1,800 -550 Descending New York TRACON
Sat 03:02:12 PM 41.0333 -73.6833 323° Northwest 142 163 1,000 -800 Descending New York TRACON
Sat 03:05:00 PM 41.0667 -73.7000 246° West  Level FlightAware Approximate

Login

Don't have an account? Register now (free) for customized features, flight alerts, and more!